EW3281 Weather Reports


Display with metric or nautical units.
time (UTC)temp
F
wind
direction
speed
MPH
gust
MPH
rain 1hr
in
rain 24hr
in
rain mn
in
humidity
%
barometer
mb
20260906201051 70 345 0.0 0.0 0.00 0.05 0.00 72 1012.5
20260906200549 70 345 0.0 0.0 0.00 0.05 0.00 72 1012.6
20260906200050 70 345 0.0 0.0 0.00 0.05 0.00 70 1012.7
20260906195550 70 356 0.0 0.0 0.00 0.05 0.00 73 1012.7
20260906194551 68 358 0.0 0.0 0.00 0.05 0.00 78 1012.8
20260906194049 68 352 0.0 0.0 0.00 0.05 0.00 78 1012.8
20260906193549 68 349 0.0 0.0 0.00 0.05 0.00 78 1012.9
20260906193049 68 340 0.0 0.0 0.00 0.05 0.00 76 1012.9
20260906192548 68 344 0.0 0.0 0.00 0.05 0.00 76 1012.8
20260906192049 68 360 0.0 0.0 0.00 0.05 0.00 74 1012.9
20260906191548 68 355 0.0 0.0 0.00 0.05 0.00 76 1012.7
20260906191048 67 344 0.0 0.0 0.00 0.05 0.00 76 1012.6
20260906190551 67 352 0.0 0.0 0.00 0.05 0.00 75 1012.6
20260906190048 67 354 0.0 0.0 0.00 0.05 0.00 74 1012.5
20260906185548 68 354 0.0 0.0 0.00 0.05 0.00 71 1012.6
20260906184554 70 342 0.0 0.0 0.00 0.05 0.00 65 1012.5
20260906184047 71 310 0.0 0.0 0.00 0.05 0.00 66 1012.4
20260906183547 71 310 0.0 0.0 0.00 0.05 0.00 65 1012.5
20260906183047 71 235 0.0 0.0 0.00 0.05 0.00 65 1012.5
20260906182545 71 199 0.0 0.0 0.00 0.05 0.00 65 1012.5
20260906182044 70 122 0.0 0.0 0.00 0.05 0.00 66 1012.7
20260906181543 69 201 0.0 0.0 0.00 0.05 0.00 70 1012.7
20260906181042 69 135 0.0 0.0 0.00 0.05 0.00 71 1012.7
20260906180542 69 193 0.0 0.0 0.00 0.05 0.00 72 1012.7
20260906180059 69 193 0.0 0.0 0.00 0.05 0.00 72 1012.8
20260906175541 69 303 0.0 0.0 0.00 0.05 0.00 73 1012.8
20260906174541 69 250 0.0 0.0 0.00 0.05 0.00 71 1012.9
20260906174041 69 311 0.0 0.0 0.00 0.05 0.00 72 1012.9
20260906173539 69 330 0.0 0.0 0.00 0.05 0.00 73 1013.0
20260906173039 69 330 0.0 0.0 0.00 0.05 0.00 73 1013.0
20260906172539 69 330 0.0 0.0 0.00 0.05 0.00 72 1013.0
20260906172037 69 354 0.0 0.0 0.00 0.05 0.00 74 1013.0
20260906171536 68 346 0.0 0.0 0.00 0.05 0.00 74 1013.0
20260906171036 67 342 0.0 0.0 0.00 0.05 0.00 76 1013.1
20260906170535 67 344 0.0 0.0 0.00 0.05 0.00 76 1013.1
20260906170042 67 340 0.0 0.0 0.00 0.05 0.00 77 1013.1
20260906165536 67 340 0.0 0.0 0.00 0.05 0.00 76 1013.0
20260906164535 67 357 0.0 0.0 0.00 0.05 0.00 75 1013.0
20260906164034 67 357 0.0 0.0 0.00 0.05 0.00 76 1013.1
20260906163535 67 193 0.0 0.0 0.00 0.05 0.00 75 1013.1
20260906163040 67 188 0.0 0.0 0.00 0.05 0.00 75 1013.1
20260906162534 67 355 0.0 0.0 0.00 0.05 0.00 75 1013.1
20260906162034 67 349 0.0 0.0 0.00 0.05 0.00 76 1013.2
20260906161534 67 350 0.0 0.0 0.00 0.05 0.00 74 1013.2
20260906161033 67 129 0.0 1.0 0.00 0.05 0.00 75 1013.1
20260906160533 67 197 0.0 1.0 0.00 0.05 0.00 74 1013.1
20260906160035 67 187 0.0 0.0 0.00 0.05 0.00 76 1013.2
20260906155532 67 203 0.0 0.0 0.00 0.05 0.00 78 1013.3
20260906154529 67 205 0.0 0.0 0.00 0.05 0.00 77 1013.3
20260906154029 66 330 0.0 0.0 0.00 0.05 0.00 78 1013.2
20260906153530 66 352 0.0 0.0 0.00 0.05 0.00 76 1013.4
20260906153028 67 211 0.0 0.0 0.00 0.05 0.05 77 1013.4
20260906152527 67 305 0.0 0.0 0.00 0.05 0.05 79 1013.4
20260906152028 66 198 0.0 0.0 0.00 0.05 0.05 79 1013.4
20260906151527 66 167 0.0 0.0 0.00 0.05 0.05 82 1013.4
20260906151029 66 11 0.0 0.0 0.00 0.05 0.05 82 1013.4
20260906150526 65 34 0.0 0.0 0.00 0.05 0.05 84 1013.4
20260906150029 65 340 0.0 0.0 0.00 0.05 0.05 85 1013.5
20260906145526 64 1 0.0 0.0 0.00 0.05 0.05 86 1013.5
20260906144532 64 195 0.0 0.0 0.00 0.05 0.05 87 1013.6
20260906144027 64 226 0.0 0.0 0.00 0.05 0.05 86 1013.6
20260906143527 64 231 0.0 0.0 0.00 0.05 0.05 87 1013.6
20260906143034 64 287 0.0 0.0 0.00 0.05 0.05 89 1013.6
20260906142526 63 206 0.0 0.0 0.00 0.05 0.05 90 1013.6
20260906142027 63 172 0.0 0.0 0.00 0.05 0.05 89 1013.6
20260906141529 62 340 0.0 0.0 0.00 0.05 0.05 90 1013.6
20260906141026 62 238 0.0 0.0 0.00 0.05 0.05 91 1013.6
20260906140527 62 16 0.0 0.0 0.00 0.05 0.05 91 1013.6
20260906140031 62 231 0.0 0.0 0.00 0.05 0.05 92 1013.7
20260906135528 62 217 0.0 0.0 0.00 0.05 0.05 92 1013.6
20260906134526 62 200 0.0 0.0 0.00 0.05 0.05 92 1013.5
20260906134028 62 149 0.0 0.0 0.00 0.05 0.05 93 1013.5
20260906133525 62 207 0.0 0.0 0.00 0.05 0.05 93 1013.5
20260906133029 62 210 0.0 0.0 0.00 0.05 0.05 93 1013.5
20260906132527 62 262 0.0 0.0 0.00 0.05 0.05 93 1013.5
20260906132025 62 229 0.0 0.0 0.00 0.05 0.05 94 1013.5
20260906131536 61 110 0.0 0.0 0.00 0.05 0.05 94 1013.4
20260906131023 61 210 0.0 0.0 0.00 0.05 0.05 94 1013.5
20260906130523 61 217 0.0 0.0 0.00 0.05 0.05 94 1013.5
20260906130023 61 197 0.0 0.0 0.00 0.05 0.05 95 1013.5
20260906125522 61 285 0.0 0.0 0.00 0.05 0.05 94 1013.4
20260906124521 60 242 0.0 0.0 0.00 0.05 0.05 95 1013.3
20260906124022 60 172 0.0 0.0 0.00 0.05 0.05 95 1013.3
20260906123521 60 200 0.0 0.0 0.00 0.05 0.05 95 1013.3
20260906123020 60 199 0.0 0.0 0.00 0.05 0.05 95 1013.3
20260906122520 60 198 0.0 0.0 0.00 0.05 0.05 95 1013.3
20260906122019 60 188 0.0 0.0 0.00 0.05 0.05 95 1013.2
20260906121520 60 229 0.0 0.0 0.00 0.05 0.05 96 1013.2
20260906121019 60 229 0.0 0.0 0.00 0.05 0.05 95 1013.2
20260906120519 60 229 0.0 0.0 0.00 0.05 0.05 96 1013.1
20260906120018 60 229 0.0 0.0 0.00 0.05 0.05 95 1013.1
20260906115520 59 229 0.0 0.0 0.01 0.05 0.05 95 1013.1
20260906114518 59 229 0.0 0.0 0.01 0.05 0.05 95 1013.0
20260906114018 59 138 0.0 0.0 0.01 0.05 0.05 95 1013.0
20260906113518 59 139 0.0 0.0 0.02 0.05 0.05 95 1013.0
20260906113021 59 138 0.0 0.0 0.04 0.05 0.05 95 1012.9
20260906112520 59 138 0.0 0.0 0.05 0.05 0.05 95 1012.8
20260906112015 59 138 0.0 0.0 0.05 0.05 0.05 94 1012.7
20260906111515 59 138 0.0 0.0 0.05 0.05 0.05 94 1012.6
20260906111013 59 138 0.0 0.0 0.05 0.05 0.05 94 1012.6
20260906110513 59 138 0.0 0.0 0.05 0.05 0.05 94 1012.5
20260906110012 59 138 0.0 0.0 0.05 0.05 0.05 94 1012.4
20260906105511 60 138 0.0 0.0 0.05 0.05 0.05 94 1012.3
20260906104515 60 138 0.0 0.0 0.04 0.04 0.04 94 1012.2
20260906104009 60 143 0.0 0.0 0.04 0.04 0.04 94 1012.2
20260906103508 60 143 0.0 0.0 0.04 0.04 0.04 94 1012.2
20260906103008 60 11 0.0 0.0 0.03 0.03 0.03 94 1012.2
20260906102507 61 352 0.0 0.0 0.01 0.01 0.01 94 1012.2
20260906102007 61 349 0.0 0.0 0.00 0.00 0.00 94 1012.1
20260906101504 61 238 0.0 0.0 0.00 0.00 0.00 94 1012.0
20260906101004 61 228 0.0 0.0 0.00 0.00 0.00 94 1011.9
20260906100504 61 348 0.0 0.0 0.00 0.00 0.00 94 1011.9
20260906100002 61 348 0.0 0.0 0.00 0.00 0.00 94 1011.8
20260906095502 61 351 0.0 0.0 0.00 0.00 0.00 94 1011.7
20260906094506 61 198 0.0 0.0 0.00 0.00 0.00 94 1011.5
20260906094002 61 181 0.0 0.0 0.00 0.00 0.00 94 1011.4
20260906093503 61 181 0.0 0.0 0.00 0.00 0.00 94 1011.3
20260906093100 61 179 0.0 0.0 0.00 0.00 0.00 94 1011.3
20260906092601 61 178 0.0 0.0 0.00 0.00 0.00 94 1011.3
20260906092059 61 178 0.0 0.0 0.00 0.00 0.00 94 1011.2
20260906091605 61 178 0.0 0.0 0.00 0.00 0.00 94 1011.1
20260906091059 61 178 0.0 0.0 0.00 0.00 0.00 94 1011.1
20260906090558 61 176 0.0 0.0 0.00 0.00 0.00 94 1011.1
20260906090059 61 176 0.0 0.0 0.00 0.00 0.00 94 1011.1
20260906085557 61 176 0.0 0.0 0.00 0.00 0.00 94 1011.1
20260906085158 62 176 0.0 0.0 0.00 0.00 0.00 94 1011.0
20260906084556 62 176 0.0 0.0 0.00 0.00 0.00 94 1010.9
20260906084057 62 176 0.0 0.0 0.00 0.00 0.00 94 1010.9
20260906083556 61 176 0.0 0.0 0.00 0.00 0.00 94 1010.9
20260906083057 61 168 0.0 0.0 0.00 0.00 0.00 94 1010.9
20260906082555 61 351 0.0 0.0 0.00 0.00 0.00 94 1010.8
20260906082058 61 351 0.0 0.0 0.00 0.00 0.00 94 1010.8
20260906081558 61 351 0.0 0.0 0.00 0.00 0.00 94 1010.7
20260906081054 62 351 0.0 0.0 0.00 0.00 0.00 94 1010.6
20260906080555 62 351 0.0 0.0 0.00 0.00 0.00 94 1010.5
20260906080107 62 351 0.0 0.0 0.00 0.00 0.00 94 1010.5
20260906075554 62 278 0.0 0.0 0.00 0.00 0.00 94 1010.5
20260906075156 62 268 0.0 0.0 0.00 0.00 0.00 94 1010.5
20260906074559 62 268 0.0 0.0 0.00 0.00 0.00 94 1010.5
20260906074055 62 268 0.0 0.0 0.00 0.00 0.00 94 1010.5
20260906073554 62 268 0.0 0.0 0.00 0.00 0.00 94 1010.7
20260906073054 62 268 0.0 0.0 0.00 0.00 0.00 94 1010.7
20260906072554 62 268 0.0 0.0 0.00 0.00 0.00 94 1010.7
20260906072055 62 268 0.0 0.0 0.00 0.00 0.00 94 1010.7
20260906071600 62 268 0.0 0.0 0.00 0.00 0.00 94 1010.7
20260906071052 62 194 0.0 0.0 0.00 0.00 0.00 93 1010.6
20260906070553 62 179 0.0 0.0 0.00 0.00 0.00 93 1010.6
20260906070052 62 178 0.0 0.0 0.00 0.00 0.00 93 1010.7
20260906065553 62 178 0.0 0.0 0.00 0.00 0.00 93 1010.7
20260906065153 62 178 0.0 0.0 0.00 0.00 0.00 93 1010.6
20260906064552 62 178 0.0 0.0 0.00 0.00 0.00 93 1010.6
20260906064054 62 178 0.0 0.0 0.00 0.00 0.00 93 1010.6
20260906063555 62 178 0.0 0.0 0.00 0.00 0.00 92 1010.6
20260906063057 62 179 0.0 0.0 0.00 0.00 0.00 92 1010.6
20260906062555 62 178 0.0 0.0 0.00 0.00 0.00 92 1010.5
20260906062051 62 178 0.0 0.0 0.00 0.00 0.00 92 1010.5
20260906061556 62 179 0.0 0.0 0.00 0.00 0.00 92 1010.6
20260906061051 62 178 0.0 0.0 0.00 0.00 0.00 92 1010.7
20260906060552 62 178 0.0 0.0 0.00 0.00 0.00 92 1010.7
20260906060051 62 178 0.0 0.0 0.00 0.00 0.00 92 1010.7
20260906055551 62 178 0.0 0.0 0.00 0.00 0.00 92 1010.7
20260906055154 62 178 0.0 0.0 0.00 0.00 0.00 92 1010.7
20260906054551 62 178 0.0 0.0 0.00 0.00 0.00 92 1010.7
20260906054051 62 178 0.0 0.0 0.00 0.00 0.00 92 1010.7
20260906053550 62 178 0.0 0.0 0.00 0.00 0.00 92 1010.8
20260906053053 62 178 0.0 0.0 0.00 0.00 0.00 93 1010.9
20260906052550 62 297 0.0 0.0 0.00 0.00 0.00 93 1010.9
20260906052050 62 297 0.0 0.0 0.00 0.00 0.00 93 1011.0
20260906051602 62 297 0.0 0.0 0.00 0.00 0.00 93 1011.0
20260906051050 62 297 0.0 0.0 0.00 0.00 0.00 93 1011.1
20260906050549 62 297 0.0 0.0 0.00 0.00 0.00 93 1011.1
20260906050049 62 297 0.0 0.0 0.00 0.00 0.00 93 1011.1
20260906045551 62 297 0.0 0.0 0.00 0.00 0.00 93 1011.0
20260906045148 62 297 0.0 0.0 0.00 0.00 0.00 93 1011.0
20260906044549 62 297 0.0 0.0 0.00 0.00 0.00 93 1011.0
20260906044049 61 297 0.0 0.0 0.00 0.00 0.00 93 1011.0
20260906043548 61 297 0.0 0.0 0.00 0.00 0.00 93 1011.0
20260906043050 61 297 0.0 0.0 0.00 0.00 0.00 93 1011.0
20260906042547 61 297 0.0 0.0 0.00 0.00 0.00 92 1011.0
20260906042047 61 297 0.0 0.0 0.00 0.00 0.00 92 1010.9
20260906041554 61 297 0.0 0.0 0.00 0.00 0.00 92 1010.9
20260906041048 61 297 0.0 0.0 0.00 0.00 0.00 92 1010.9
20260906040547 61 297 0.0 0.0 0.00 0.00 0.00 92 1010.9
20260906040047 61 297 0.0 0.0 0.00 0.00 0.00 91 1010.9
20260906035546 61 297 0.0 0.0 0.00 0.00 0.00 91 1010.8
20260906035146 61 297 0.0 0.0 0.00 0.00 0.00 90 1010.8
20260906034548 61 297 0.0 0.0 0.00 0.00 0.00 90 1010.7
20260906034044 61 297 0.0 0.0 0.00 0.00 0.00 90 1010.8
20260906033543 61 297 0.0 0.0 0.00 0.00 0.00 90 1010.8
20260906033045 62 297 0.0 0.0 0.00 0.00 0.00 89 1010.7
20260906032543 62 297 0.0 0.0 0.00 0.00 0.00 89 1010.7
20260906032042 62 297 0.0 0.0 0.00 0.00 0.00 89 1010.6
20260906031541 62 297 0.0 0.0 0.00 0.00 0.00 88 1010.5
20260906031040 62 297 0.0 0.0 0.00 0.00 0.00 88 1010.6
20260906030540 63 297 0.0 0.0 0.00 0.00 0.00 88 1010.7
20260906030039 63 297 0.0 0.0 0.00 0.00 0.00 87 1010.7
20260906025539 63 297 0.0 0.0 0.00 0.00 0.00 87 1010.6
20260906025139 63 297 0.0 0.0 0.00 0.00 0.00 87 1010.7
20260906024546 63 297 0.0 0.0 0.00 0.00 0.00 87 1010.7
20260906024038 63 297 0.0 0.0 0.00 0.00 0.00 87 1010.6
20260906023538 63 297 0.0 0.0 0.00 0.00 0.00 87 1010.6
20260906023038 64 297 0.0 0.0 0.00 0.00 0.00 87 1010.5
20260906022537 64 297 0.0 0.0 0.00 0.00 0.00 87 1010.7
20260906022040 64 297 0.0 0.0 0.00 0.00 0.00 87 1010.7
20260906021538 64 297 0.0 0.0 0.00 0.00 0.00 86 1010.7
20260906021036 64 297 0.0 0.0 0.00 0.00 0.00 86 1010.7
20260906020537 64 333 0.0 0.0 0.00 0.00 0.00 86 1010.7
20260906020045 64 333 0.0 0.0 0.00 0.00 0.00 86 1010.7
20260906015537 64 333 0.0 0.0 0.00 0.00 0.00 86 1010.7
20260906015138 64 333 0.0 0.0 0.00 0.00 0.00 86 1010.6
20260906014550 64 333 0.0 0.0 0.00 0.00 0.00 86 1010.6
20260906014038 64 333 0.0 0.0 0.00 0.00 0.00 86 1010.6
20260906013537 64 333 0.0 0.0 0.00 0.00 0.00 86 1010.7
20260906013039 64 333 0.0 0.0 0.00 0.00 0.00 86 1010.8
20260906012536 64 333 0.0 0.0 0.00 0.00 0.00 86 1010.8
20260906012036 64 333 0.0 0.0 0.00 0.00 0.00 86 1010.8
20260906011540 64 333 0.0 0.0 0.00 0.00 0.00 86 1010.7
20260906011035 64 333 0.0 0.0 0.00 0.00 0.00 86 1010.7
20260906010535 64 333 0.0 0.0 0.00 0.00 0.00 86 1010.6
20260906010035 64 333 0.0 0.0 0.00 0.00 0.00 85 1010.6
20260906005533 64 333 0.0 0.0 0.00 0.00 0.00 85 1010.5
20260906005136 64 333 0.0 0.0 0.00 0.00 0.00 85 1010.4
20260906004540 64 333 0.0 0.0 0.00 0.00 0.00 85 1010.4
20260906004033 64 333 0.0 0.0 0.00 0.00 0.00 86 1010.4
20260906003534 64 333 0.0 0.0 0.00 0.00 0.00 85 1010.4
20260906003046 63 333 0.0 0.0 0.00 0.00 0.00 85 1010.4
20260906002531 64 333 0.0 0.0 0.00 0.00 0.00 85 1010.3
20260906002031 64 333 0.0 0.0 0.00 0.00 0.00 86 1010.2
20260906001531 64 333 0.0 0.0 0.00 0.00 0.00 86 1010.2
20260906001030 64 333 0.0 0.0 0.00 0.00 0.00 86 1010.2
20260906000530 64 333 0.0 0.0 0.00 0.00 0.00 86 1010.2
20260906000029 64 333 0.0 0.0 0.00 0.00 0.00 86 1010.1
20260905235529 64 333 0.0 0.0 0.00 0.00 0.00 85 1010.0
20260905235127 64 333 0.0 0.0 0.00 0.00 0.00 84 1009.8
20260905234529 64 333 0.0 0.0 0.00 0.00 0.00 84 1009.8
20260905234033 65 333 0.0 0.0 0.00 0.00 0.00 84 1009.8
20260905233529 65 333 0.0 0.0 0.00 0.00 0.00 83 1009.9
20260905233029 65 333 0.0 0.0 0.00 0.00 0.00 82 1009.8
20260905232531 65 333 0.0 0.0 0.00 0.00 0.00 82 1009.8
20260905232026 65 333 0.0 0.0 0.00 0.00 0.00 82 1009.8
20260905231530 66 333 0.0 0.0 0.00 0.00 0.00 82 1009.9
20260905231124 66 333 0.0 0.0 0.00 0.00 0.00 81 1009.8
20260905230524 66 333 0.0 0.0 0.00 0.00 0.00 81 1009.8
20260905230024 66 333 0.0 0.0 0.00 0.00 0.00 81 1009.7
20260905225526 66 333 0.0 0.0 0.00 0.00 0.00 80 1009.7
20260905225123 67 333 0.0 0.0 0.00 0.00 0.00 80 1009.7
20260905224526 67 333 0.0 0.0 0.00 0.00 0.00 80 1009.7
20260905224018 67 333 0.0 0.0 0.00 0.00 0.00 79 1009.7
20260905223517 67 333 0.0 0.0 0.00 0.00 0.00 79 1009.7
20260905223017 67 333 0.0 0.0 0.00 0.00 0.00 79 1009.7
20260905222519 68 334 0.0 0.0 0.00 0.00 0.00 78 1009.7
20260905222014 68 333 0.0 0.0 0.00 0.00 0.00 78 1009.6
20260905221514 68 335 0.0 0.0 0.00 0.00 0.00 78 1009.6
20260905221013 68 334 0.0 0.0 0.00 0.00 0.00 77 1009.5
20260905220513 69 4 0.0 0.0 0.00 0.00 0.00 77 1009.4
20260905220015 69 348 0.0 0.0 0.00 0.00 0.00 78 1009.3
20260905215510 69 348 0.0 0.0 0.00 0.00 0.00 77 1009.3
20260905215109 69 348 0.0 0.0 0.00 0.00 0.00 76 1009.0
20260905214509 69 337 0.0 0.0 0.00 0.00 0.00 76 1008.9
20260905214009 69 335 0.0 0.0 0.00 0.00 0.00 77 1008.8
20260905213508 70 339 0.0 0.0 0.00 0.00 0.00 76 1008.7
20260905213007 70 110 0.0 0.0 0.00 0.00 0.00 76 1008.6
20260905212506 70 3 0.0 0.0 0.00 0.00 0.00 76 1008.6
20260905212006 70 3 0.0 0.0 0.00 0.00 0.00 76 1008.5
20260905211506 70 10 0.0 0.0 0.00 0.00 0.00 75 1008.5
20260905211008 70 8 0.0 0.0 0.00 0.00 0.00 76 1008.6
20260905210505 71 5 0.0 0.0 0.00 0.00 0.00 75 1008.5
20260905210010 71 6 0.0 0.0 0.00 0.00 0.00 74 1008.3
20260905205505 72 6 0.0 0.0 0.00 0.00 0.00 74 1008.3
20260905205104 72 14 0.0 0.0 0.00 0.00 0.00 73 1008.1
20260905204503 72 15 0.0 0.0 0.00 0.00 0.00 73 1008.2
20260905204007 72 13 0.0 0.0 0.00 0.00 0.00 73 1008.2
20260905203503 72 345 0.0 0.0 0.00 0.00 0.00 73 1008.1
20260905203003 72 321 0.0 0.0 0.00 0.00 0.00 72 1008.2
20260905202503 73 8 0.0 0.0 0.00 0.00 0.00 72 1008.1
20260905202002 73 11 0.0 0.0 0.00 0.00 0.00 70 1008.1
20260905201503 74 195 0.0 0.0 0.00 0.00 0.00 70 1008.0